Retour au catalogue

RASSVET-3 32

ActifPO
NORAD 100098·PAYLOAD·🇷🇺 Russia

Lancé Jul 19, 2026 depuis Plesetsk Cosmodrome

Loading…

Prochains Passages (prochaines 24 heures)

TLE

FraisSource: Space-Track

Époque: Sep 14, 2026, 21:17 UTC

1 A0098U 26165R   26257.88688192 -.00201350  00000-0 -38108-2 0  9994
2 A0098  82.2994 167.4687 0000637 159.2826 200.8450 15.49120463  8991

Suivez RASSVET-3 32 en temps réel avec AllMySat

Download on the App Store